Barkley Observed Data For Previous 48 Hours

Caption
Day and Hour Reservoir Elevation (behind dam)* Tailwater Elevation (below dam)* Average Hourly Discharge*
3/22/2019 1 AM CDT 355.60 332.60 75,200
3/22/2019 2 AM CDT 355.60 332.50 75,600
3/22/2019 3 AM CDT 355.60 332.50 75,300
3/22/2019 4 AM CDT 355.55 332.45 75,600
3/22/2019 5 AM CDT 355.55 332.25 75,000
3/22/2019 6 AM CDT 355.55 332.25 76,000
3/22/2019 7 AM CDT 355.55 332.15 75,300
3/22/2019 8 AM CDT 355.55 332.15 75,700
3/22/2019 9 AM CDT 355.55 332.05 76,300
3/22/2019 10 AM CDT 355.55 332.05 75,200
3/22/2019 11 AM CDT 355.50 331.90 75,400
3/22/2019 12 PM CDT 355.50 331.90 76,200
3/22/2019 1 PM CDT 355.50 331.80 75,500
3/22/2019 2 PM CDT 355.45 331.75 76,000
3/22/2019 3 PM CDT 355.45 331.75 76,000
3/22/2019 4 PM CDT 355.45 331.65 75,400
3/22/2019 5 PM CDT 355.40 331.60 74,600
3/22/2019 6 PM CDT 355.40 331.60 75,000
3/22/2019 7 PM CDT 355.35 331.45 75,300
3/22/2019 8 PM CDT 355.35 331.45 75,700
3/22/2019 9 PM CDT 355.35 331.35 75,600
3/22/2019 10 PM CDT 355.35 331.35 75,000
3/22/2019 11 PM CDT 355.35 331.45 76,300
3/23/2019 12 AM CDT 355.30 331.20 74,900
3/23/2019 1 AM CDT 355.30 331.20 76,600
3/23/2019 2 AM CDT 355.30 331.10 76,100
3/23/2019 3 AM CDT 355.30 331.00 75,300
3/23/2019 4 AM CDT 355.30 330.90 75,600
3/23/2019 5 AM CDT 355.30 330.90 75,200
3/23/2019 6 AM CDT 355.25 330.85 74,900
3/23/2019 7 AM CDT 355.25 330.75 75,900
3/23/2019 8 AM CDT 355.25 330.75 76,200
3/23/2019 9 AM CDT 355.25 330.65 74,300
3/23/2019 10 AM CDT 355.20 330.60 74,900
3/23/2019 11 AM CDT 355.20 330.60 74,900
3/23/2019 12 PM CDT 355.20 330.50 74,600
3/23/2019 1 PM CDT 355.15 330.45 76,100
3/23/2019 2 PM CDT 355.15 330.45 75,300
3/23/2019 3 PM CDT 355.15 330.35 75,900
3/23/2019 4 PM CDT 355.10 330.30 75,000
3/23/2019 5 PM CDT 355.10 330.20 74,700
3/23/2019 6 PM CDT 355.05 330.15 75,800
3/23/2019 7 PM CDT 355.05 330.15 75,100
3/23/2019 8 PM CDT 355.00 330.00 75,000
3/23/2019 9 PM CDT 355.00 330.00 75,000
3/23/2019 10 PM CDT 355.00 329.90 75,200
3/23/2019 11 PM CDT 355.00 329.90 76,000
3/24/2019 12 AM CDT 354.95 329.85 74,800

Elevations are in feet above sea level. Discharges are in cubic feet per second and are reported at the end of the hour.